Flag for Germany Weather past 2 weeks in Neustrelitz, Mecklenburg-Western Pomerania, Germany

Now
73 °F

Sunny.


Feels Like: 74 °F
Forecast: 53 / 68 °F
Wind: 3 mph from West

Location: Neuruppin

Current Time: Sep 1, 2015 at 10:37:03 AM

Latest Report: Sep 1, 2015 at 10:00 AM


Visibility: 6 mi

Pressure: 29.75 "Hg

Humidity: 73%

Dew point: 64 °F

Location of NeustrelitzLocation

Historic Weather in Neustrelitz — Graph

°F

Neustrelitz temperature yesterday

Maximum temperature yesterday: 89 °F (at 4:00 PM)
Minimum temperature yesterday: 64 °F (at 5:00 AM)
Average temperature yesterday: 75 °F

Past Weeks' High & Low Weather Summary

 TemperatureHumidityPressure
High89 °F (Aug 31, 4:00 PM)99% (Aug 20, 3:00 AM)30.32 "Hg (Aug 20, 3:00 AM)
Low51 °F (Aug 29, 7:00 AM)32% (Aug 22, 3:00 PM)29.70 "Hg (Aug 24, 8:00 PM)
Average66 °F72%30.02 "Hg
* Reported Aug 17 9:00 AM — Sep 1 9:00 AM, Neustrelitz, Weather by CustomWeather, © 2015

Note: Actual official high and low records may vary slightly from our data, if they occured in-between our weather recording intervals... More about our weather records

Advertising

Neustrelitz weather history for previous 24 hours

 ConditionsComfort  
Time TempWeatherWind HumidityBarometerVisibility
9:00 AM
Tue, Sep 1
71 °FSunny.2 mph82%29.74 "Hg6 mi
8:00 AM68 °FSunny.2 mph87%29.74 "Hg6 mi
7:00 AM66 °FSunny.1 mph89%29.73 "Hg6 mi
6:00 AM66 °FClear.No wind88%29.72 "Hg6 mi
5:00 AM66 °FClear.1 mph87%29.72 "Hg6 mi
4:00 AM67 °FClear.1 mph88%29.72 "Hg5 mi
3:00 AM68 °FClear.1 mph86%29.70 "Hg6 mi
2:00 AM70 °FClear.1 mph88%29.72 "Hg6 mi
1:00 AM70 °FClear.1 mph91%29.73 "Hg6 mi
10:00 PM
Mon, Aug 31
75 °FPassing clouds.No wind91%29.75 "Hg6 mi
9:00 PM76 °FPassing clouds.No wind87%29.76 "Hg6 mi
8:00 PM80 °FPassing clouds.No wind80%29.76 "Hg6 mi
7:00 PM85 °FScattered clouds.No wind70%29.77 "Hg6 mi
6:00 PM87 °FSunny.1 mph59%29.78 "Hg6 mi
4:00 PM89 °FSunny.1 mph52%29.83 "Hg6 mi
3:00 PM88 °FScattered clouds.1 mph57%29.86 "Hg6 mi
2:00 PM85 °FScattered clouds.1 mph68%29.89 "Hg6 mi
1:00 PM82 °FOvercast.2 mph69%29.90 "Hg6 mi
12:00 PM78 °FSunny.1 mph74%29.91 "Hg6 mi
10:00 AM72 °FPartly sunny.1 mph79%29.93 "Hg6 mi
Weather by CustomWeather, © 2015

See weather overviewHow to use our weather pages